Find Tianqi Xingzuo 1-19

NORAD ID: 57795 Int'l Des: 2023-135 Owner: GUOG Country: CN Constellation: tianqi operational
LEOCIRCULAR

当前视图

正在加载3D地球...

About Tianqi Xingzuo 1-19

Tianqi Xingzuo 1-19 (NORAD 57795) is a tianqi constellation satellite launched Sep 5, 2023 by GUOG of CN. It operates in LEO, CIRCULAR orbit with a mass of 40.00 kg.

关于 Tianqi Xingzuo 1-19

正在加载描述...

即将过境

Passes for default location (London). Set your location on the main map for personalized predictions.

高度历史

Loading altitude history...

两行轨道根数

1 57795U 23135D 26160.08976980 .00000001 00000-0 70240-4 0 9997
2 57795 49.9716 186.8543 0014393 233.9265 126.0315 14.23142298143479
Epoch: Jun 9, 2026 • Age: 9 hours

当前状态

高度 829.3 km
速度 7.44 km/s
星下点 49.81°N, 155.72°W
发射日期 Sep 5, 2023
运行时间 2.7 years
类型 other

技术详情

分类 Payload
质量 40.00 kg
干质量 40.00 kg
总质量 40.00 kg
长度 0.50 m
直径 0.30 m
跨度 0.50 m
形状 Box
制造商 ASES
平台类型 StarLightB
阶段状态 In Orbit
所有者/国家 GUOG/CN

Most Searched